Weather History for Carbondale, IL

Change the Weather History Date:

Wednesday, November 28, 2012

  Actual Average Record
Temperature  
Mean Temperature 36 °F -  
Max Temperature 50 °F 51 °F 75 °F (1990)
Min Temperature 21 °F 31 °F 12 °F (1955)
Degree Days  
Heating Degree Days 30    
Moisture  
Dew Point 23 °F    
Average Humidity 71    
Maximum Humidity 92    
Minimum Humidity 35    
Precipitation  
Precipitation 0.00 in - - ()
Sea Level Pressure  
Sea Level Pressure 30.42 in    
Wind  
Wind Speed 1 mph (SSE)    
Max Wind Speed 4 mph    
Max Gust Speed -    
Visibility 9 miles    
Events      
Averages and records for this station are not official NWS values.
T = Trace of Precipitation, MM = Missing Value Source: NWS Daily Summary

Daily Weather History Graph

Daily Weather History Graph

Search for Another Location

Airport:

Trip Planner

Search our weather history database for the weather conditions in past years. The results will help you decide how hot, cold, wet, or windy it might be!

Date:

Astronomy

Nov. 28, 2012 Rise Set
Actual Time 6:51 AM CST 4:38 PM CST
Civil Twilight 6:22 AM CST 5:07 PM CST
Nautical Twilight 5:50 AM CST 5:40 PM CST
Astronomical Twilight 5:18 AM CST 6:11 PM CST
Moon 4:53 PM CST (11/28) 6:48 AM CST (11/28)
Length of Visible Light 10h 45m
Length of Day
9h 47m
Full, 100% of the Moon is Illuminated
Nov 28
Full
Dec 6
Last Quarter
Dec 13
New
Dec 19
First Quarter
Dec 28
Full

Hourly Weather History & Observations

Time (CST) Temp. Windchill Dew Point Humidity Pressure Visibility Wind Dir Wind Speed Gust Speed Precip Events Conditions
12:52 AM 23.0 °F - 19.9 °F 88% 30.38 in 6.0 mi Calm Calm - N/A   Clear
1:52 AM 21.9 °F - 19.0 °F 89% 30.39 in 7.0 mi Calm Calm - N/A   Clear
2:52 AM 25.0 °F - 21.9 °F 88% 30.40 in 8.0 mi Calm Calm - N/A   Clear
3:52 AM 21.0 °F - 19.0 °F 92% 30.40 in 7.0 mi Calm Calm - N/A   Clear
4:52 AM 21.0 °F - 19.0 °F 92% 30.42 in 7.0 mi Calm Calm - N/A   Clear
5:52 AM 21.9 °F - 18.0 °F 85% 30.43 in 8.0 mi Calm Calm - N/A   Clear
6:52 AM 21.0 °F - 18.0 °F 88% 30.44 in 6.0 mi Calm Calm - N/A   Clear
7:52 AM 25.0 °F - 23.0 °F 92% 30.46 in 6.0 mi Calm Calm - N/A   Clear
8:52 AM 33.1 °F - 28.0 °F 82% 30.48 in 8.0 mi Calm Calm - N/A   Clear
9:52 AM 39.9 °F - 28.0 °F 63% 30.48 in 10.0 mi Calm Calm - N/A   Clear
10:52 AM 45.0 °F - 26.1 °F 48% 30.48 in 10.0 mi Calm Calm - N/A   Clear
11:52 AM 46.0 °F - 23.0 °F 40% 30.46 in 10.0 mi Calm Calm - N/A   Clear
12:52 PM 46.9 °F - 23.0 °F 39% 30.44 in 10.0 mi WSW 3.5 mph - N/A   Clear
1:52 PM 48.0 °F - 24.1 °F 39% 30.42 in 10.0 mi Calm Calm - N/A   Clear
2:52 PM 50.0 °F - 23.0 °F 35% 30.40 in 10.0 mi Calm Calm - N/A   Clear
3:52 PM 48.9 °F - 24.1 °F 38% 30.40 in 10.0 mi Calm Calm - N/A   Clear
4:52 PM 41.0 °F 39.0 °F 27.0 °F 57% 30.39 in 10.0 mi East 3.5 mph - N/A   Clear
5:52 PM 41.0 °F 39.0 °F 24.1 °F 51% 30.40 in 10.0 mi SSW 3.5 mph - N/A   Clear
6:52 PM 32.0 °F - 24.1 °F 73% 30.40 in 10.0 mi Calm Calm - N/A   Clear
7:52 PM 30.0 °F 26.5 °F 24.1 °F 79% 30.39 in 10.0 mi SSE 3.5 mph - N/A   Clear
8:52 PM 30.9 °F - 25.0 °F 79% 30.39 in 10.0 mi Calm Calm - N/A   Clear
9:52 PM 27.0 °F 23.0 °F 23.0 °F 85% 30.38 in 10.0 mi SSE 3.5 mph - N/A   Clear
10:52 PM 26.1 °F 21.9 °F 23.0 °F 88% 30.38 in 10.0 mi SSE 3.5 mph - N/A   Clear
11:52 PM 26.1 °F 21.9 °F 21.9 °F 84% 30.37 in 10.0 mi SE 3.5 mph - N/A   Clear